Time,TemperatureF,DewpointF,PressureIn,WindDirection,WindDirectionDegrees,WindSpeedMPH,WindSpeedGustMPH,Humidity,HourlyPrecipIn,Conditions,Clouds,dailyrainin,SoftwareType,DateUTC
2013-02-05 00:03:00,34.3,32.0,29.60,West,280,9.2,9.2,91,0.00,RA,FEW,0.00,WeatherDisplay:10.37,2013-02-05 00:03:00,
2013-02-05 00:08:00,34.3,32.0,29.60,West,280,6.2,6.3,91,0.00,RA,FEW,0.00,WeatherDisplay:10.37,2013-02-05 00:08:00,
2013-02-05 00:13:00,34.3,32.0,29.60,West,280,6.2,6.3,91,0.00,BKN,FEW,0.00,WeatherDisplay:10.37,2013-02-05 00:13:00,
2013-02-05 00:18:00,34.7,32.3,29.56,SE,145,6.9,7.0,91,0.00,BKN,FEW,0.00,WeatherDisplay:10.37,2013-02-05 00:18:00,
2013-02-05 00:23:00,34.3,32.0,29.56,SW,235,6.9,6.9,91,0.00,BKN,FEW,0.00,WeatherDisplay:10.37,2013-02-05 00:23:00,
2013-02-05 00:28:00,34.2,31.5,29.56,WSW,258,10.4,10.4,90,0.00,BKN,FEW,0.00,WeatherDisplay:10.37,2013-02-05 00:28:00,
2013-02-05 00:33:00,34.2,31.5,29.56,West,280,8.1,8.1,90,0.00,BKN,FEW,0.00,WeatherDisplay:10.37,2013-02-05 00:33:00,
2013-02-05 00:38:00,34.2,31.8,29.56,ESE,122,11.7,11.7,91,0.00,BKN,FEW,0.00,WeatherDisplay:10.37,2013-02-05 00:38:00,
2013-02-05 00:43:00,34.2,31.8,29.56,West,280,12.7,12.7,91,0.00,BKN,FEW,0.00,WeatherDisplay:10.37,2013-02-05 00:43:00,
2013-02-05 00:48:00,34.2,31.8,29.56,West,280,17.3,17.3,91,0.00,BKN,FEW,0.00,WeatherDisplay:10.37,2013-02-05 00:48:00,
2013-02-05 00:53:00,34.3,31.7,29.56,ESE,122,8.1,8.5,90,0.00,BKN,FEW,0.00,WeatherDisplay:10.37,2013-02-05 00:53:00,
2013-02-05 00:58:00,34.5,31.9,29.56,WSW,258,15.0,15.0,90,0.00,BKN,FEW,0.00,WeatherDisplay:10.37,2013-02-05 00:58:00,
2013-02-05 01:03:00,34.5,31.9,29.56,ESE,122,8.1,8.1,90,0.00,SCT,FEW,0.00,WeatherDisplay:10.37,2013-02-05 01:03:00,
2013-02-05 01:08:00,34.7,32.1,29.56,WSW,258,9.2,9.2,90,0.00,SCT,FEW,0.00,WeatherDisplay:10.37,2013-02-05 01:08:00,
2013-02-05 01:13:00,34.7,32.1,29.56,WNW,302,10.4,10.4,90,0.00,SCT,FEW,0.00,WeatherDisplay:10.37,2013-02-05 01:13:00,
2013-02-05 01:18:00,34.9,32.2,29.56,West,280,9.2,9.2,90,0.00,SCT,FEW,0.00,WeatherDisplay:10.37,2013-02-05 01:18:00,
2013-02-05 01:23:00,34.9,32.2,29.56,West,280,6.9,6.9,90,0.00,SCT,FEW,0.00,WeatherDisplay:10.37,2013-02-05 01:23:00,
2013-02-05 01:28:00,35.1,32.4,29.56,WSW,258,10.4,10.4,90,0.00,SCT,FEW,0.00,WeatherDisplay:10.37,2013-02-05 01:28:00,
2013-02-05 01:33:00,35.1,32.4,29.56,WSW,258,12.7,12.7,90,0.00,SCT,FEW,0.00,WeatherDisplay:10.37,2013-02-05 01:33:00,
2013-02-05 01:38:00,35.1,32.4,29.56,WSW,258,10.4,10.4,90,0.00,SCT,FEW,0.00,WeatherDisplay:10.37,2013-02-05 01:38:00,
2013-02-05 01:43:00,34.9,32.5,29.56,WSW,258,11.5,11.5,91,0.00,SCT,FEW,0.00,WeatherDisplay:10.37,2013-02-05 01:43:00,
2013-02-05 01:48:00,34.7,32.3,29.56,ESE,122,10.4,10.4,91,0.00,SCT,FEW,0.00,WeatherDisplay:10.37,2013-02-05 01:48:00,
2013-02-05 01:53:00,34.7,32.3,29.56,West,280,4.6,7.7,91,0.00,SCT,FEW,0.00,WeatherDisplay:10.37,2013-02-05 01:53:00,
2013-02-05 01:58:00,34.3,32.3,29.56,WSW,258,9.2,9.2,92,0.00,SCT,FEW,0.00,WeatherDisplay:10.37,2013-02-05 01:58:00,
2013-02-05 02:03:00,34.5,32.4,29.56,WSW,258,10.4,10.4,92,0.00,BKN,FEW,0.00,WeatherDisplay:10.37,2013-02-05 02:03:00,
2013-02-05 02:08:00,34.7,32.6,29.56,West,280,16.1,16.1,92,0.00,BKN,FEW,0.00,WeatherDisplay:10.37,2013-02-05 02:08:00,
2013-02-05 02:13:00,34.7,32.6,29.56,WSW,258,8.1,8.1,92,0.00,BKN,FEW,0.00,WeatherDisplay:10.37,2013-02-05 02:13:00,
2013-02-05 02:18:00,34.7,32.6,29.56,SE,145,9.4,9.4,92,0.00,BKN,FEW,0.00,WeatherDisplay:10.37,2013-02-05 02:18:00,
2013-02-05 02:23:00,34.3,32.3,29.56,WSW,258,19.6,19.6,92,0.00,BKN,FEW,0.00,WeatherDisplay:10.37,2013-02-05 02:23:00,
2013-02-05 02:28:00,34.2,32.1,29.56,West,280,9.2,9.2,92,0.00,BKN,FEW,0.00,WeatherDisplay:10.37,2013-02-05 02:28:00,
2013-02-05 02:33:00,34.2,32.1,29.56,West,280,8.1,8.6,92,0.00,BKN,FEW,0.00,WeatherDisplay:10.37,2013-02-05 02:33:00,
2013-02-05 02:38:00,34.2,32.1,29.56,WSW,258,10.4,10.4,92,0.00,BKN,FEW,0.00,WeatherDisplay:10.37,2013-02-05 02:38:00,
2013-02-05 02:43:00,34.2,32.1,29.56,WSW,258,12.7,12.7,92,0.00,BKN,FEW,0.00,WeatherDisplay:10.37,2013-02-05 02:43:00,
2013-02-05 02:48:00,34.0,31.9,29.56,WSW,258,4.6,6.9,92,0.00,BKN,FEW,0.00,WeatherDisplay:10.37,2013-02-05 02:48:00,
2013-02-05 02:53:00,34.0,31.9,29.56,WSW,258,8.1,8.1,92,0.00,BKN,FEW,0.00,WeatherDisplay:10.37,2013-02-05 02:53:00,
2013-02-05 02:58:00,34.2,32.1,29.56,SE,145,8.1,8.1,92,0.00,BKN,FEW,0.00,WeatherDisplay:10.37,2013-02-05 02:58:00,
2013-02-05 03:03:00,34.0,31.9,29.56,ESE,122,10.6,10.6,92,0.00,BKN,FEW,0.00,WeatherDisplay:10.37,2013-02-05 03:03:00,
2013-02-05 03:08:00,34.0,31.9,29.56,ESE,122,10.4,10.4,92,0.00,BKN,FEW,0.00,WeatherDisplay:10.37,2013-02-05 03:08:00,
2013-02-05 03:13:00,34.0,31.9,29.56,ESE,122,10.4,10.4,92,0.00,BKN,FEW,0.00,WeatherDisplay:10.37,2013-02-05 03:13:00,
2013-02-05 03:18:00,33.6,31.5,29.56,NNW,348,9.5,9.5,92,0.00,BKN,FEW,0.00,WeatherDisplay:10.37,2013-02-05 03:18:00,
2013-02-05 03:23:00,33.6,31.5,29.56,WSW,258,13.0,13.0,92,0.00,BKN,FEW,0.00,WeatherDisplay:10.37,2013-02-05 03:23:00,
2013-02-05 03:28:00,34.0,31.9,29.56,ESE,122,11.5,11.5,92,0.00,BKN,FEW,0.00,WeatherDisplay:10.37,2013-02-05 03:28:00,
2013-02-05 03:33:00,34.0,31.9,29.56,West,280,15.0,15.0,92,0.00,BKN,FEW,0.00,WeatherDisplay:10.37,2013-02-05 03:33:00,
2013-02-05 03:38:00,34.0,31.9,29.56,WSW,258,9.2,9.2,92,0.00,BKN,FEW,0.00,WeatherDisplay:10.37,2013-02-05 03:38:00,
2013-02-05 03:43:00,33.6,31.5,29.56,ESE,122,6.9,6.9,92,0.00,BKN,FEW,0.00,WeatherDisplay:10.37,2013-02-05 03:43:00,
2013-02-05 03:48:00,33.4,31.4,29.56,WSW,258,11.5,11.5,92,0.00,BKN,FEW,0.00,WeatherDisplay:10.37,2013-02-05 03:48:00,
2013-02-05 03:53:00,33.4,31.4,29.56,ESE,122,6.9,6.9,92,0.00,BKN,FEW,0.00,WeatherDisplay:10.37,2013-02-05 03:53:00,
2013-02-05 03:58:00,33.4,31.4,29.56,WSW,258,13.8,13.8,92,0.00,BKN,FEW,0.00,WeatherDisplay:10.37,2013-02-05 03:58:00,
2013-02-05 04:03:00,33.6,31.5,29.56,West,280,12.2,12.2,92,0.00,BKN,FEW,0.00,WeatherDisplay:10.37,2013-02-05 04:03:00,
2013-02-05 04:08:00,33.8,31.7,29.56,West,280,9.2,9.2,92,0.00,BKN,FEW,0.00,WeatherDisplay:10.37,2013-02-05 04:08:00,
2013-02-05 04:13:00,34.0,31.9,29.56,WSW,258,9.2,9.2,92,0.00,BKN,FEW,0.00,WeatherDisplay:10.37,2013-02-05 04:13:00,
2013-02-05 04:18:00,33.6,31.5,29.56,ESE,122,11.5,11.5,92,0.00,BKN,FEW,0.00,WeatherDisplay:10.37,2013-02-05 04:18:00,
2013-02-05 04:23:00,33.6,31.5,29.56,ESE,122,8.1,9.1,92,0.00,BKN,FEW,0.00,WeatherDisplay:10.37,2013-02-05 04:23:00,
2013-02-05 04:28:00,33.8,31.7,29.56,WNW,302,8.1,8.1,92,0.00,BKN,FEW,0.00,WeatherDisplay:10.37,2013-02-05 04:28:00,
2013-02-05 04:33:00,33.6,31.5,29.56,WSW,258,9.2,9.2,92,0.00,BKN,FEW,0.00,WeatherDisplay:10.37,2013-02-05 04:33:00,
2013-02-05 04:38:00,33.8,31.7,29.56,WSW,258,11.5,11.5,92,0.00,BKN,FEW,0.00,WeatherDisplay:10.37,2013-02-05 04:38:00,
2013-02-05 04:43:00,33.6,31.5,29.56,ESE,122,9.2,9.2,92,0.00,BKN,FEW,0.00,WeatherDisplay:10.37,2013-02-05 04:43:00,
2013-02-05 04:48:00,33.4,31.4,29.56,ESE,122,12.7,12.7,92,0.00,BKN,FEW,0.00,WeatherDisplay:10.37,2013-02-05 04:48:00,
2013-02-05 04:53:00,33.4,31.4,29.56,WSW,258,8.5,8.5,92,0.00,BKN,FEW,0.00,WeatherDisplay:10.37,2013-02-05 04:53:00,
2013-02-05 04:58:00,33.4,31.4,29.56,West,280,9.2,9.2,92,0.00,BKN,FEW,0.00,WeatherDisplay:10.37,2013-02-05 04:58:00,
2013-02-05 05:00:00,33.4,31.4,29.56,WSW,258,9.2,9.2,92,0.00,BKN,FEW,0.00,WeatherDisplay:10.37,2013-02-05 05:00:00,
2013-02-05 05:05:00,33.4,31.1,29.56,WSW,258,13.9,13.9,91,0.00,BKN,FEW,0.00,WeatherDisplay:10.37,2013-02-05 05:05:00,
2013-02-05 05:10:00,33.4,31.1,29.56,SE,145,5.8,6.9,91,0.00,BKN,FEW,0.00,WeatherDisplay:10.37,2013-02-05 05:10:00,
2013-02-05 05:15:00,33.4,31.1,29.56,ESE,122,12.7,12.7,91,0.00,BKN,FEW,0.00,WeatherDisplay:10.37,2013-02-05 05:15:00,
2013-02-05 05:20:00,33.4,31.1,29.56,WSW,258,18.4,18.4,91,0.00,BKN,FEW,0.00,WeatherDisplay:10.37,2013-02-05 05:20:00,
2013-02-05 05:25:00,33.3,30.9,29.56,West,280,6.9,8.3,91,0.00,BKN,FEW,0.00,WeatherDisplay:10.37,2013-02-05 05:25:00,
2013-02-05 05:31:00,33.4,31.1,29.56,West,280,11.5,11.5,91,0.00,BKN,FEW,0.00,WeatherDisplay:10.37,2013-02-05 05:31:00,
2013-02-05 05:35:00,33.4,31.1,29.56,WSW,258,13.8,13.8,91,0.00,BKN,FEW,0.00,WeatherDisplay:10.37,2013-02-05 05:35:00,
2013-02-05 05:41:00,33.4,31.1,29.56,ESE,122,8.1,8.1,91,0.00,BKN,FEW,0.00,WeatherDisplay:10.37,2013-02-05 05:41:00,
2013-02-05 05:46:00,33.1,30.7,29.56,West,280,13.8,13.8,91,0.00,BKN,FEW,0.00,WeatherDisplay:10.37,2013-02-05 05:46:00,
2013-02-05 05:51:00,32.9,30.6,29.56,WSW,258,8.1,8.1,91,0.00,BKN,FEW,0.00,WeatherDisplay:10.37,2013-02-05 05:51:00,
2013-02-05 05:56:00,32.9,30.6,29.56,WSW,258,13.8,13.8,91,0.00,BKN,FEW,0.00,WeatherDisplay:10.37,2013-02-05 05:56:00,
2013-02-05 06:01:00,32.9,30.8,29.56,West,280,11.5,11.5,92,0.00,BKN,FEW,0.00,WeatherDisplay:10.37,2013-02-05 06:01:00,
2013-02-05 06:06:00,32.9,30.8,29.56,WSW,258,12.7,12.7,92,0.00,BKN,FEW,0.00,WeatherDisplay:10.37,2013-02-05 06:06:00,
2013-02-05 06:11:00,32.9,30.8,29.56,WSW,258,12.7,12.7,92,0.00,BKN,FEW,0.00,WeatherDisplay:10.37,2013-02-05 06:11:00,
2013-02-05 06:16:00,33.1,30.7,29.56,WSW,258,17.4,17.4,91,0.00,BKN,FEW,0.00,WeatherDisplay:10.37,2013-02-05 06:16:00,
2013-02-05 06:21:00,33.3,30.9,29.56,ESE,122,6.9,6.9,91,0.00,BKN,FEW,0.00,WeatherDisplay:10.37,2013-02-05 06:21:00,
2013-02-05 06:26:00,33.3,30.9,29.56,WSW,258,6.9,7.1,91,0.00,BKN,FEW,0.00,WeatherDisplay:10.37,2013-02-05 06:26:00,
2013-02-05 06:31:00,33.3,30.9,29.56,SE,145,10.4,10.4,91,0.00,BKN,FEW,0.00,WeatherDisplay:10.37,2013-02-05 06:31:00,
2013-02-05 06:36:00,33.3,30.9,29.56,West,280,9.2,9.2,91,0.00,BKN,FEW,0.00,WeatherDisplay:10.37,2013-02-05 06:36:00,
2013-02-05 06:41:00,33.3,30.6,29.56,WSW,258,13.8,13.8,90,0.00,BKN,FEW,0.00,WeatherDisplay:10.37,2013-02-05 06:41:00,
2013-02-05 06:46:00,33.1,30.5,29.56,WSW,258,9.2,9.2,90,0.00,BKN,FEW,0.00,WeatherDisplay:10.37,2013-02-05 06:46:00,
2013-02-05 06:51:00,32.9,30.3,29.56,West,280,8.1,8.1,90,0.00,BKN,FEW,0.00,WeatherDisplay:10.37,2013-02-05 06:51:00,
2013-02-05 06:56:00,32.9,30.3,29.56,WSW,258,13.8,13.8,90,0.00,BKN,FEW,0.00,WeatherDisplay:10.37,2013-02-05 06:56:00,
2013-02-05 07:01:00,32.7,30.1,29.56,WSW,258,10.4,10.4,90,0.00,BKN,FEW,0.00,WeatherDisplay:10.37,2013-02-05 07:01:00,
2013-02-05 07:06:00,32.7,30.1,29.56,ESE,122,11.5,11.5,90,0.00,BKN,FEW,0.00,WeatherDisplay:10.37,2013-02-05 07:06:00,
2013-02-05 07:11:00,32.7,30.1,29.56,WSW,258,4.6,6.5,90,0.00,BKN,FEW,0.00,WeatherDisplay:10.37,2013-02-05 07:11:00,
2013-02-05 07:16:00,32.4,29.8,29.56,West,280,12.7,12.7,90,0.00,BKN,FEW,0.00,WeatherDisplay:10.37,2013-02-05 07:16:00,
2013-02-05 07:21:00,32.5,30.2,29.56,ESE,122,10.4,10.4,91,0.00,BKN,FEW,0.00,WeatherDisplay:10.37,2013-02-05 07:21:00,
2013-02-05 07:26:00,32.5,30.2,29.56,SE,145,8.1,8.1,91,0.00,BKN,FEW,0.00,WeatherDisplay:10.37,2013-02-05 07:26:00,
2013-02-05 07:31:00,32.7,30.4,29.56,WSW,258,10.4,10.4,91,0.00,BKN,FEW,0.00,WeatherDisplay:10.37,2013-02-05 07:31:00,
2013-02-05 07:36:00,32.7,30.4,29.56,WNW,302,15.0,15.0,91,0.00,BKN,FEW,0.00,WeatherDisplay:10.37,2013-02-05 07:36:00,
2013-02-05 07:41:00,32.7,30.4,29.56,WSW,258,17.3,17.3,91,0.00,BKN,FEW,0.00,WeatherDisplay:10.37,2013-02-05 07:41:00,
2013-02-05 07:46:00,32.7,30.4,29.56,ESE,122,20.7,20.7,91,0.00,BKN,FEW,0.00,WeatherDisplay:10.37,2013-02-05 07:46:00,
2013-02-05 07:51:00,32.7,30.1,29.56,WSW,258,9.2,9.2,90,0.00,BKN,FEW,0.00,WeatherDisplay:10.37,2013-02-05 07:51:00,
2013-02-05 07:56:00,32.9,30.3,29.56,WSW,258,9.2,9.2,90,0.00,BKN,FEW,0.00,WeatherDisplay:10.37,2013-02-05 07:56:00,
2013-02-05 08:01:00,32.5,29.9,29.56,ESE,122,13.8,13.8,90,0.00,BKN,FEW,0.00,WeatherDisplay:10.37,2013-02-05 08:01:00,
2013-02-05 08:06:00,32.9,30.6,29.56,ESE,122,13.8,13.8,91,0.00,BKN,FEW,0.00,WeatherDisplay:10.37,2013-02-05 08:06:00,
2013-02-05 08:11:00,32.9,30.6,29.56,SE,145,13.8,13.8,91,0.00,BKN,FEW,0.00,WeatherDisplay:10.37,2013-02-05 08:11:00,
2013-02-05 08:16:00,32.7,30.4,29.56,West,280,11.5,11.5,91,0.00,BKN,FEW,0.00,WeatherDisplay:10.37,2013-02-05 08:16:00,
2013-02-05 08:21:00,32.7,30.4,29.56,WSW,258,13.8,13.8,91,0.00,BKN,FEW,0.00,WeatherDisplay:10.37,2013-02-05 08:21:00,
2013-02-05 08:26:00,32.7,30.4,29.56,SE,145,10.4,10.4,91,0.00,BKN,FEW,0.00,WeatherDisplay:10.37,2013-02-05 08:26:00,
2013-02-05 08:31:00,32.7,30.4,29.56,SE,145,9.2,9.2,91,0.00,BKN,FEW,0.00,WeatherDisplay:10.37,2013-02-05 08:31:00,
2013-02-05 08:36:00,32.7,30.4,29.56,WSW,258,11.5,11.5,91,0.00,BKN,FEW,0.00,WeatherDisplay:10.37,2013-02-05 08:36:00,
2013-02-05 08:41:00,33.3,30.9,29.56,WSW,258,12.7,12.7,91,0.00,BKN,FEW,0.00,WeatherDisplay:10.37,2013-02-05 08:41:00,
2013-02-05 08:46:00,33.4,31.1,29.56,WSW,258,11.5,11.5,91,0.00,BKN,FEW,0.00,WeatherDisplay:10.37,2013-02-05 08:46:00,
2013-02-05 08:51:00,33.4,31.1,29.56,WSW,258,8.2,8.3,91,0.00,BKN,FEW,0.00,WeatherDisplay:10.37,2013-02-05 08:51:00,
2013-02-05 08:56:00,33.4,31.1,29.56,WSW,258,11.5,11.5,91,0.00,BKN,FEW,0.00,WeatherDisplay:10.37,2013-02-05 08:56:00,
2013-02-05 09:01:00,33.4,31.1,29.56,SE,145,13.8,13.8,91,0.00,-SN,FEW,0.00,WeatherDisplay:10.37,2013-02-05 09:01:00,
2013-02-05 09:06:00,34.0,31.9,29.56,West,280,10.0,10.0,92,0.00,-SN,FEW,0.00,WeatherDisplay:10.37,2013-02-05 09:06:00,
2013-02-05 09:11:00,34.2,32.1,29.56,ESE,122,16.1,16.1,92,0.00,-SN,FEW,0.00,WeatherDisplay:10.37,2013-02-05 09:11:00,
2013-02-05 09:16:00,34.3,32.0,29.56,WSW,258,15.0,15.0,91,0.00,-SN,FEW,0.00,WeatherDisplay:10.37,2013-02-05 09:16:00,
2013-02-05 09:21:00,34.7,32.3,29.56,SE,145,13.8,13.8,91,0.00,-SN,FEW,0.00,WeatherDisplay:10.37,2013-02-05 09:21:00,
2013-02-05 09:26:00,34.9,32.2,29.56,ESE,122,15.0,15.0,90,0.00,-SN,FEW,0.00,WeatherDisplay:10.37,2013-02-05 09:26:00,
2013-02-05 09:31:00,35.1,32.4,29.56,WSW,258,11.5,11.5,90,0.00,-SN,FEW,0.00,WeatherDisplay:10.37,2013-02-05 09:31:00,
2013-02-05 09:36:00,35.1,32.4,29.56,WSW,258,9.2,9.2,90,0.00,-SN,FEW,0.00,WeatherDisplay:10.37,2013-02-05 09:36:00,
2013-02-05 09:41:00,35.1,32.4,29.56,WSW,258,10.4,10.4,90,0.00,-SN,FEW,0.00,WeatherDisplay:10.37,2013-02-05 09:41:00,
2013-02-05 09:46:00,34.9,32.2,29.56,SE,145,11.5,11.5,90,0.00,-SN,FEW,0.00,WeatherDisplay:10.37,2013-02-05 09:46:00,
2013-02-05 09:51:00,35.1,32.4,29.56,WSW,258,9.7,9.7,90,0.00,-SN,FEW,0.00,WeatherDisplay:10.37,2013-02-05 09:51:00,
2013-02-05 09:57:00,34.7,32.1,29.56,WSW,258,10.5,10.7,90,0.00,-SN,FEW,0.00,WeatherDisplay:10.37,2013-02-05 09:57:00,
2013-02-05 10:02:00,35.1,32.4,29.56,WSW,258,12.7,12.7,90,0.00,SCT,FEW,0.00,WeatherDisplay:10.37,2013-02-05 10:02:00,
2013-02-05 10:07:00,35.4,32.8,29.56,West,280,18.4,18.4,90,0.00,SCT,FEW,0.00,WeatherDisplay:10.37,2013-02-05 10:07:00,
2013-02-05 10:12:00,35.4,32.8,29.56,ESE,122,9.2,9.8,90,0.00,SCT,FEW,0.00,WeatherDisplay:10.37,2013-02-05 10:12:00,
2013-02-05 10:17:00,35.4,32.8,29.56,South,190,11.5,11.5,90,0.00,SCT,FEW,0.00,WeatherDisplay:10.37,2013-02-05 10:17:00,
2013-02-05 10:22:00,35.8,33.1,29.56,WSW,258,11.5,11.5,90,0.00,SCT,FEW,0.00,WeatherDisplay:10.37,2013-02-05 10:22:00,
2013-02-05 10:27:00,36.1,33.5,29.56,West,280,13.8,13.8,90,0.00,SCT,FEW,0.00,WeatherDisplay:10.37,2013-02-05 10:27:00,
2013-02-05 10:32:00,36.5,33.6,29.56,West,280,13.8,13.8,89,0.00,SCT,FEW,0.00,WeatherDisplay:10.37,2013-02-05 10:32:00,
2013-02-05 10:37:00,36.5,33.6,29.56,WSW,258,15.0,15.0,89,0.00,SCT,FEW,0.00,WeatherDisplay:10.37,2013-02-05 10:37:00,
2013-02-05 10:42:00,36.9,33.9,29.56,West,280,14.2,14.2,89,0.00,SCT,FEW,0.00,WeatherDisplay:10.37,2013-02-05 10:42:00,
2013-02-05 10:47:00,36.9,33.9,29.56,WSW,258,16.1,16.1,89,0.00,SCT,FEW,0.00,WeatherDisplay:10.37,2013-02-05 10:47:00,
2013-02-05 10:52:00,37.0,33.8,29.56,WSW,258,13.8,13.8,88,0.00,SCT,FEW,0.00,WeatherDisplay:10.37,2013-02-05 10:52:00,
2013-02-05 10:57:00,37.2,34.0,29.56,WSW,258,19.6,19.6,88,0.00,SCT,FEW,0.00,WeatherDisplay:10.37,2013-02-05 10:57:00,
2013-02-05 11:02:00,36.9,33.6,29.56,WSW,258,12.7,12.7,88,0.00,SCT,FEW,0.00,WeatherDisplay:10.37,2013-02-05 11:02:00,
2013-02-05 11:07:00,36.7,33.5,29.56,West,280,10.4,10.5,88,0.00,SCT,FEW,0.00,WeatherDisplay:10.37,2013-02-05 11:07:00,
2013-02-05 11:12:00,37.2,34.0,29.56,WSW,258,10.4,10.4,88,0.00,SCT,FEW,0.00,WeatherDisplay:10.37,2013-02-05 11:12:00,
2013-02-05 11:17:00,37.8,34.5,29.56,WSW,258,17.3,17.3,88,0.00,SCT,FEW,0.00,WeatherDisplay:10.37,2013-02-05 11:17:00,
2013-02-05 11:22:00,38.5,34.9,29.56,WSW,258,17.3,17.3,87,0.00,SCT,FEW,0.00,WeatherDisplay:10.37,2013-02-05 11:22:00,
2013-02-05 11:27:00,38.3,34.8,29.56,ESE,122,15.0,15.0,87,0.00,SCT,FEW,0.00,WeatherDisplay:10.37,2013-02-05 11:27:00,
2013-02-05 11:32:00,38.3,34.5,29.56,ESE,122,16.1,16.1,86,0.00,SCT,FEW,0.00,WeatherDisplay:10.37,2013-02-05 11:32:00,
2013-02-05 11:37:00,38.3,34.8,29.56,WSW,258,16.1,16.1,87,0.00,SCT,FEW,0.00,WeatherDisplay:10.37,2013-02-05 11:37:00,
2013-02-05 11:42:00,38.3,34.5,29.56,West,280,20.7,20.7,86,0.00,SCT,FEW,0.00,WeatherDisplay:10.37,2013-02-05 11:42:00,
2013-02-05 11:47:00,38.5,34.7,29.56,West,280,15.0,15.0,86,0.00,SCT,FEW,0.00,WeatherDisplay:10.37,2013-02-05 11:47:00,
2013-02-05 11:52:00,38.7,35.1,29.56,WSW,258,19.0,19.0,87,0.00,SCT,FEW,0.00,WeatherDisplay:10.37,2013-02-05 11:52:00,
2013-02-05 11:57:00,39.0,35.5,29.56,WSW,258,16.1,16.1,87,0.00,SCT,FEW,0.00,WeatherDisplay:10.37,2013-02-05 11:57:00,
2013-02-05 12:02:00,39.4,35.8,29.56,ESE,122,18.4,18.4,87,0.00,CLR,FEW,0.00,WeatherDisplay:10.37,2013-02-05 12:02:00,
2013-02-05 12:07:00,39.4,35.8,29.56,ESE,122,10.4,10.4,87,0.00,CLR,FEW,0.00,WeatherDisplay:10.37,2013-02-05 12:07:00,
2013-02-05 12:12:00,39.4,35.8,29.56,ESE,122,10.4,10.4,87,0.00,CLR,FEW,0.00,WeatherDisplay:10.37,2013-02-05 12:12:00,
2013-02-05 12:17:00,40.5,36.3,29.56,West,280,27.8,27.8,85,0.00,CLR,FEW,0.00,WeatherDisplay:10.37,2013-02-05 12:17:00,
2013-02-05 12:22:00,40.5,36.3,29.56,WSW,258,13.8,13.8,85,0.03,RA,FEW,0.03,WeatherDisplay:10.37,2013-02-05 12:22:00,
2013-02-05 12:27:00,40.5,36.0,29.56,West,280,17.3,17.3,84,0.03,RA,FEW,0.03,WeatherDisplay:10.37,2013-02-05 12:27:00,
2013-02-05 12:32:00,40.6,36.2,29.56,WSW,258,11.5,11.5,84,0.03,CLR,FEW,0.03,WeatherDisplay:10.37,2013-02-05 12:32:00,
2013-02-05 12:37:00,40.8,36.4,29.56,ESE,122,17.3,17.3,84,0.03,CLR,FEW,0.03,WeatherDisplay:10.37,2013-02-05 12:37:00,
2013-02-05 12:42:00,41.2,36.7,29.35,WSW,258,16.1,16.1,84,0.03,CLR,FEW,0.03,WeatherDisplay:10.37,2013-02-05 12:42:00,
2013-02-05 12:47:00,41.0,36.5,29.35,WSW,258,33.4,33.4,84,0.03,CLR,FEW,0.03,WeatherDisplay:10.37,2013-02-05 12:47:00,
2013-02-05 12:52:00,41.4,36.9,29.35,WSW,258,15.0,15.0,84,0.03,CLR,FEW,0.03,WeatherDisplay:10.37,2013-02-05 12:52:00,
2013-02-05 12:57:00,41.7,36.9,29.35,WSW,258,15.0,15.0,83,0.03,CLR,FEW,0.03,WeatherDisplay:10.37,2013-02-05 12:57:00,
2013-02-05 13:02:00,42.6,37.5,29.36,WSW,258,17.3,17.3,82,0.03,SCT,FEW,0.03,WeatherDisplay:10.37,2013-02-05 13:02:00,
2013-02-05 13:07:00,42.8,37.7,29.36,West,280,17.3,17.3,82,0.03,SCT,FEW,0.03,WeatherDisplay:10.37,2013-02-05 13:07:00,
2013-02-05 13:12:00,42.8,37.7,29.36,WSW,258,11.5,13.3,82,0.03,SCT,FEW,0.03,WeatherDisplay:10.37,2013-02-05 13:12:00,
2013-02-05 13:17:00,43.0,37.9,29.36,WSW,258,13.8,13.8,82,0.03,SCT,FEW,0.03,WeatherDisplay:10.37,2013-02-05 13:17:00,
2013-02-05 13:22:00,43.0,37.9,29.36,WSW,258,23.0,23.0,82,0.00,SCT,FEW,0.03,WeatherDisplay:10.37,2013-02-05 13:22:00,
2013-02-05 13:27:00,43.0,37.9,29.36,WSW,258,17.3,17.3,82,0.00,SCT,FEW,0.03,WeatherDisplay:10.37,2013-02-05 13:27:00,
2013-02-05 13:32:00,43.3,38.2,29.36,West,280,11.5,12.1,82,0.00,SCT,FEW,0.03,WeatherDisplay:10.37,2013-02-05 13:32:00,
2013-02-05 13:37:00,43.0,37.9,29.36,WSW,258,16.1,16.1,82,0.00,SCT,FEW,0.03,WeatherDisplay:10.37,2013-02-05 13:37:00,
2013-02-05 13:42:00,43.0,38.2,29.36,ESE,122,10.4,10.4,83,0.00,SCT,FEW,0.03,WeatherDisplay:10.37,2013-02-05 13:42:00,
2013-02-05 13:47:00,43.3,38.5,29.36,WSW,258,16.1,16.1,83,0.00,SCT,FEW,0.03,WeatherDisplay:10.37,2013-02-05 13:47:00,
2013-02-05 13:52:00,43.2,38.7,29.36,SE,145,15.0,15.0,84,0.00,SCT,FEW,0.03,WeatherDisplay:10.37,2013-02-05 13:52:00,
2013-02-05 13:57:00,43.0,38.8,29.36,WSW,258,13.8,13.8,85,0.00,SCT,FEW,0.03,WeatherDisplay:10.37,2013-02-05 13:57:00,
2013-02-05 14:02:00,43.2,39.0,29.35,West,280,10.4,10.4,85,0.00,BKN,FEW,0.03,WeatherDisplay:10.37,2013-02-05 14:02:00,
2013-02-05 14:07:00,42.8,38.9,29.35,West,280,14.2,14.2,86,0.00,BKN,FEW,0.03,WeatherDisplay:10.37,2013-02-05 14:07:00,
2013-02-05 14:12:00,43.0,39.4,29.35,SE,145,17.3,17.3,87,0.00,BKN,FEW,0.03,WeatherDisplay:10.37,2013-02-05 14:12:00,
2013-02-05 14:17:00,43.0,39.4,29.35,WSW,258,13.8,13.8,87,0.00,BKN,FEW,0.03,WeatherDisplay:10.37,2013-02-05 14:17:00,
2013-02-05 14:22:00,43.0,39.4,29.35,WSW,258,5.8,7.7,87,0.00,BKN,FEW,0.03,WeatherDisplay:10.37,2013-02-05 14:22:00,
2013-02-05 14:27:00,43.3,39.7,29.35,West,280,11.5,11.5,87,0.00,BKN,FEW,0.03,WeatherDisplay:10.37,2013-02-05 14:27:00,
2013-02-05 14:32:00,43.5,39.9,29.35,WSW,258,11.5,11.5,87,0.00,BKN,FEW,0.03,WeatherDisplay:10.37,2013-02-05 14:32:00,
2013-02-05 14:37:00,43.7,40.4,29.35,West,280,10.4,10.4,88,0.00,BKN,FEW,0.03,WeatherDisplay:10.37,2013-02-05 14:37:00,
2013-02-05 14:42:00,43.7,40.4,29.35,WSW,258,12.7,12.7,88,0.00,BKN,FEW,0.03,WeatherDisplay:10.37,2013-02-05 14:42:00,
2013-02-05 14:47:00,43.5,40.2,29.35,NW,325,6.9,7.6,88,0.00,BKN,FEW,0.03,WeatherDisplay:10.37,2013-02-05 14:47:00,
2013-02-05 14:52:00,43.7,40.4,29.35,WSW,258,8.1,8.1,88,0.00,BKN,FEW,0.03,WeatherDisplay:10.37,2013-02-05 14:52:00,
2013-02-05 14:57:00,43.9,40.6,29.35,WSW,258,13.8,13.8,88,0.00,BKN,FEW,0.03,WeatherDisplay:10.37,2013-02-05 14:57:00,
2013-02-05 15:03:00,44.4,40.8,29.35,NW,325,12.7,12.7,87,0.00,BKN,FEW,0.03,WeatherDisplay:10.37,2013-02-05 15:03:00,
2013-02-05 15:08:00,44.4,40.8,29.35,WSW,258,21.9,21.9,87,0.00,BKN,FEW,0.03,WeatherDisplay:10.37,2013-02-05 15:08:00,
2013-02-05 15:13:00,44.8,41.1,29.35,WSW,258,10.4,10.4,87,0.00,BKN,FEW,0.03,WeatherDisplay:10.37,2013-02-05 15:13:00,
2013-02-05 15:18:00,44.8,41.1,29.34,West,280,11.5,11.5,87,0.00,BKN,FEW,0.03,WeatherDisplay:10.37,2013-02-05 15:18:00,
2013-02-05 15:23:00,44.8,41.1,29.34,WSW,258,19.6,19.6,87,0.00,BKN,FEW,0.03,WeatherDisplay:10.37,2013-02-05 15:23:00,
2013-02-05 15:28:00,44.8,40.8,29.34,WSW,258,11.5,11.5,86,0.00,BKN,FEW,0.03,WeatherDisplay:10.37,2013-02-05 15:28:00,
2013-02-05 15:33:00,44.8,40.8,29.34,West,280,18.4,18.4,86,0.00,BKN,FEW,0.03,WeatherDisplay:10.37,2013-02-05 15:33:00,
2013-02-05 15:38:00,44.4,40.5,29.36,West,280,13.8,13.8,86,0.00,BKN,FEW,0.03,WeatherDisplay:10.37,2013-02-05 15:38:00,
2013-02-05 15:43:00,44.2,40.3,29.36,West,280,18.4,18.4,86,0.00,BKN,FEW,0.03,WeatherDisplay:10.37,2013-02-05 15:43:00,
2013-02-05 15:48:00,44.4,40.2,29.36,WSW,258,9.2,9.3,85,0.00,BKN,FEW,0.03,WeatherDisplay:10.37,2013-02-05 15:48:00,
2013-02-05 15:53:00,44.6,40.4,29.36,WSW,258,12.7,12.7,85,0.00,BKN,FEW,0.03,WeatherDisplay:10.37,2013-02-05 15:53:00,
2013-02-05 15:58:00,44.4,40.2,29.36,West,280,15.0,15.0,85,0.00,BKN,FEW,0.03,WeatherDisplay:10.37,2013-02-05 15:58:00,
2013-02-05 16:03:00,44.2,40.0,29.36,WSW,258,13.8,13.8,85,0.00,BKN,FEW,0.03,WeatherDisplay:10.37,2013-02-05 16:03:00,
2013-02-05 16:08:00,44.2,40.0,29.36,ENE,78,9.2,9.2,85,0.00,BKN,FEW,0.03,WeatherDisplay:10.37,2013-02-05 16:08:00,
2013-02-05 16:13:00,44.2,40.0,29.36,West,280,19.8,19.8,85,0.00,BKN,FEW,0.03,WeatherDisplay:10.37,2013-02-05 16:13:00,
2013-02-05 16:18:00,44.4,39.9,29.36,WSW,258,13.9,13.9,84,0.00,BKN,FEW,0.03,WeatherDisplay:10.37,2013-02-05 16:18:00,
2013-02-05 16:23:00,44.4,39.9,29.36,NW,325,11.5,11.5,84,0.00,BKN,FEW,0.03,WeatherDisplay:10.37,2013-02-05 16:23:00,
2013-02-05 16:28:00,44.8,40.2,29.36,WNW,302,19.7,19.7,84,0.00,BKN,FEW,0.03,WeatherDisplay:10.37,2013-02-05 16:28:00,
2013-02-05 16:33:00,44.8,40.2,29.36,WSW,258,12.9,12.9,84,0.00,BKN,FEW,0.03,WeatherDisplay:10.37,2013-02-05 16:33:00,
2013-02-05 16:38:00,44.8,40.2,29.36,WSW,258,9.2,9.4,84,0.00,BKN,FEW,0.03,WeatherDisplay:10.37,2013-02-05 16:38:00,
2013-02-05 16:43:00,44.6,40.1,29.36,WSW,258,12.7,12.7,84,0.00,BKN,FEW,0.03,WeatherDisplay:10.37,2013-02-05 16:43:00,
2013-02-05 16:48:00,44.8,40.2,29.36,West,280,20.7,20.7,84,0.00,BKN,FEW,0.03,WeatherDisplay:10.37,2013-02-05 16:48:00,
2013-02-05 16:53:00,44.4,39.9,29.36,ESE,122,16.1,16.1,84,0.00,BKN,FEW,0.03,WeatherDisplay:10.37,2013-02-05 16:53:00,
2013-02-05 16:58:00,44.2,39.7,29.38,West,280,23.0,23.0,84,0.00,BKN,FEW,0.03,WeatherDisplay:10.37,2013-02-05 16:58:00,
2013-02-05 17:03:00,44.4,39.9,29.38,NW,325,12.7,12.7,84,0.00,SCT,FEW,0.03,WeatherDisplay:10.37,2013-02-05 17:03:00,
2013-02-05 17:08:00,44.2,39.7,29.38,WSW,258,11.7,11.7,84,0.00,SCT,FEW,0.03,WeatherDisplay:10.37,2013-02-05 17:08:00,
2013-02-05 17:13:00,44.2,39.7,29.38,WSW,258,12.7,12.7,84,0.00,SCT,FEW,0.03,WeatherDisplay:10.37,2013-02-05 17:13:00,
2013-02-05 17:18:00,44.2,39.4,29.40,West,280,11.5,11.5,83,0.00,SCT,FEW,0.03,WeatherDisplay:10.37,2013-02-05 17:18:00,
2013-02-05 17:23:00,44.2,39.7,29.40,WNW,302,19.6,19.6,84,0.00,SCT,FEW,0.03,WeatherDisplay:10.37,2013-02-05 17:23:00,
2013-02-05 17:28:00,44.2,39.7,29.40,West,280,11.5,11.5,84,0.00,SCT,FEW,0.03,WeatherDisplay:10.37,2013-02-05 17:28:00,
2013-02-05 17:33:00,44.4,39.9,29.40,West,280,12.7,12.7,84,0.00,SCT,FEW,0.03,WeatherDisplay:10.37,2013-02-05 17:33:00,
2013-02-05 17:38:00,44.1,39.5,29.41,NW,325,4.6,8.0,84,0.00,SCT,FEW,0.03,WeatherDisplay:10.37,2013-02-05 17:38:00,
2013-02-05 17:43:00,44.2,39.7,29.41,SE,145,11.5,11.5,84,0.00,SCT,FEW,0.03,WeatherDisplay:10.37,2013-02-05 17:43:00,
2013-02-05 17:48:00,44.2,39.4,29.41,West,280,17.3,17.3,83,0.00,SCT,FEW,0.03,WeatherDisplay:10.37,2013-02-05 17:48:00,
2013-02-05 17:53:00,44.2,39.1,29.41,WSW,258,10.4,10.4,82,0.00,SCT,FEW,0.03,WeatherDisplay:10.37,2013-02-05 17:53:00,
2013-02-05 17:58:00,44.2,39.1,29.41,WSW,258,9.2,9.2,82,0.00,SCT,FEW,0.03,WeatherDisplay:10.37,2013-02-05 17:58:00,
2013-02-05 18:03:00,44.2,39.1,29.41,West,280,8.1,8.2,82,0.00,FEW,,0.03,WeatherDisplay:10.37,2013-02-05 18:03:00,
2013-02-05 18:08:00,44.2,39.1,29.41,West,280,6.9,8.2,82,0.00,FEW,,0.03,WeatherDisplay:10.37,2013-02-05 18:08:00,
2013-02-05 18:13:00,44.1,38.9,29.41,WSW,258,8.1,8.2,82,0.00,FEW,,0.03,WeatherDisplay:10.37,2013-02-05 18:13:00,
2013-02-05 18:18:00,43.9,38.7,29.41,WSW,258,13.8,13.8,82,0.00,FEW,,0.03,WeatherDisplay:10.37,2013-02-05 18:18:00,
2013-02-05 18:23:00,44.1,38.6,29.41,WSW,258,10.4,10.4,81,0.00,FEW,,0.03,WeatherDisplay:10.37,2013-02-05 18:23:00,
2013-02-05 18:28:00,44.1,38.6,29.41,West,280,16.1,16.1,81,0.00,FEW,,0.03,WeatherDisplay:10.37,2013-02-05 18:28:00,
2013-02-05 18:33:00,44.1,38.6,29.41,WNW,302,15.6,15.6,81,0.00,FEW,,0.03,WeatherDisplay:10.37,2013-02-05 18:33:00,
2013-02-05 18:38:00,44.1,38.6,29.41,WSW,258,9.2,9.2,81,0.00,FEW,,0.03,WeatherDisplay:10.37,2013-02-05 18:38:00,
2013-02-05 18:43:00,43.7,38.3,29.41,WNW,302,13.8,13.8,81,0.00,FEW,,0.03,WeatherDisplay:10.37,2013-02-05 18:43:00,
2013-02-05 18:48:00,43.5,38.1,29.41,SW,235,15.7,15.7,81,0.00,FEW,,0.03,WeatherDisplay:10.37,2013-02-05 18:48:00,
2013-02-05 18:53:00,43.5,38.1,29.41,NW,325,8.1,8.9,81,0.00,FEW,,0.03,WeatherDisplay:10.37,2013-02-05 18:53:00,
2013-02-05 18:58:00,43.3,38.2,29.41,ESE,122,11.5,11.5,82,0.00,FEW,,0.03,WeatherDisplay:10.37,2013-02-05 18:58:00,
2013-02-05 19:03:00,43.2,38.0,29.41,East,100,8.1,8.1,82,0.00,BKN,FEW,0.03,WeatherDisplay:10.37,2013-02-05 19:03:00,
2013-02-05 19:08:00,43.5,38.4,29.41,WSW,258,18.6,18.6,82,0.00,BKN,FEW,0.03,WeatherDisplay:10.37,2013-02-05 19:08:00,
2013-02-05 19:13:00,43.3,38.2,29.41,WSW,258,10.4,10.4,82,0.00,BKN,FEW,0.03,WeatherDisplay:10.37,2013-02-05 19:13:00,
2013-02-05 19:18:00,43.3,38.2,29.46,West,280,10.4,10.4,82,0.00,BKN,FEW,0.03,WeatherDisplay:10.37,2013-02-05 19:18:00,
2013-02-05 19:23:00,43.2,38.0,29.46,WSW,258,17.3,17.3,82,0.00,BKN,FEW,0.03,WeatherDisplay:10.37,2013-02-05 19:23:00,
2013-02-05 19:28:00,42.8,37.7,29.46,WNW,302,8.1,9.8,82,0.00,BKN,FEW,0.03,WeatherDisplay:10.37,2013-02-05 19:28:00,
2013-02-05 19:33:00,42.8,37.7,29.46,WSW,258,17.3,17.3,82,0.00,BKN,FEW,0.03,WeatherDisplay:10.37,2013-02-05 19:33:00,
2013-02-05 19:38:00,42.6,37.5,29.46,West,280,17.3,17.3,82,0.00,BKN,FEW,0.03,WeatherDisplay:10.37,2013-02-05 19:38:00,
2013-02-05 19:43:00,42.6,37.5,29.46,WSW,258,12.7,12.7,82,0.00,BKN,FEW,0.03,WeatherDisplay:10.37,2013-02-05 19:43:00,
2013-02-05 19:48:00,42.4,37.3,29.46,NNW,348,19.6,19.6,82,0.00,BKN,FEW,0.03,WeatherDisplay:10.37,2013-02-05 19:48:00,
2013-02-05 19:53:00,42.8,38.0,29.46,West,280,11.5,11.5,83,0.00,BKN,FEW,0.03,WeatherDisplay:10.37,2013-02-05 19:53:00,
2013-02-05 19:58:00,43.0,38.2,29.48,NW,325,13.8,13.8,83,0.00,BKN,FEW,0.03,WeatherDisplay:10.37,2013-02-05 19:58:00,
2013-02-05 20:03:00,42.8,37.7,29.48,WSW,258,12.7,12.7,82,0.00,SCT,FEW,0.03,WeatherDisplay:10.37,2013-02-05 20:03:00,
2013-02-05 20:08:00,42.8,37.7,29.48,WNW,302,8.6,8.7,82,0.00,SCT,FEW,0.03,WeatherDisplay:10.37,2013-02-05 20:08:00,
2013-02-05 20:14:00,42.8,38.0,29.48,ESE,122,17.3,17.3,83,0.00,SCT,FEW,0.03,WeatherDisplay:10.37,2013-02-05 20:14:00,
2013-02-05 20:19:00,43.0,38.2,29.48,NW,325,11.5,11.5,83,0.00,SCT,FEW,0.03,WeatherDisplay:10.37,2013-02-05 20:19:00,
2013-02-05 20:24:00,43.0,38.2,29.48,West,280,18.4,18.4,83,0.00,SCT,FEW,0.03,WeatherDisplay:10.37,2013-02-05 20:24:00,
2013-02-05 20:29:00,43.0,38.2,29.48,WSW,258,23.0,23.0,83,0.00,SCT,FEW,0.03,WeatherDisplay:10.37,2013-02-05 20:29:00,
2013-02-05 20:34:00,42.8,38.0,29.48,WNW,302,14.1,14.1,83,0.00,SCT,FEW,0.03,WeatherDisplay:10.37,2013-02-05 20:34:00,
2013-02-05 20:39:00,42.6,38.1,29.48,WSW,258,24.3,24.3,84,0.00,SCT,FEW,0.03,WeatherDisplay:10.37,2013-02-05 20:39:00,
2013-02-05 20:44:00,42.3,37.8,29.48,West,280,17.3,17.3,84,0.00,SCT,FEW,0.03,WeatherDisplay:10.37,2013-02-05 20:44:00,
2013-02-05 20:49:00,42.1,37.6,29.48,NW,325,16.1,16.1,84,0.00,SCT,FEW,0.03,WeatherDisplay:10.37,2013-02-05 20:49:00,
2013-02-05 20:54:00,41.7,37.5,29.48,WSW,258,10.4,10.4,85,0.00,SCT,FEW,0.03,WeatherDisplay:10.37,2013-02-05 20:54:00,
2013-02-05 20:59:00,41.5,37.4,29.48,WSW,258,9.2,9.7,85,0.00,SCT,FEW,0.03,WeatherDisplay:10.37,2013-02-05 20:59:00,
2013-02-05 21:04:00,41.5,37.4,29.48,NW,325,15.0,15.0,85,0.00,BKN,FEW,0.03,WeatherDisplay:10.37,2013-02-05 21:04:00,
2013-02-05 21:09:00,41.4,37.5,29.48,WSW,258,11.5,11.5,86,0.00,BKN,FEW,0.03,WeatherDisplay:10.37,2013-02-05 21:09:00,
2013-02-05 21:14:00,41.4,37.5,29.48,West,280,17.3,17.3,86,0.00,BKN,FEW,0.03,WeatherDisplay:10.37,2013-02-05 21:14:00,
2013-02-05 21:19:00,41.5,37.7,29.55,West,280,16.1,16.1,86,0.00,BKN,FEW,0.03,WeatherDisplay:10.37,2013-02-05 21:19:00,
2013-02-05 21:24:00,41.5,37.7,29.55,WNW,302,18.4,18.4,86,0.00,BKN,FEW,0.03,WeatherDisplay:10.37,2013-02-05 21:24:00,
2013-02-05 21:29:00,41.4,37.2,29.55,WSW,258,13.8,13.8,85,0.00,BKN,FEW,0.03,WeatherDisplay:10.37,2013-02-05 21:29:00,
2013-02-05 21:34:00,41.5,37.7,29.55,ESE,122,16.1,16.1,86,0.00,BKN,FEW,0.03,WeatherDisplay:10.37,2013-02-05 21:34:00,
2013-02-05 21:39:00,41.4,37.5,29.56,WNW,302,10.4,10.4,86,0.00,BKN,FEW,0.03,WeatherDisplay:10.37,2013-02-05 21:39:00,
2013-02-05 21:44:00,41.4,37.5,29.56,WNW,302,12.7,12.7,86,0.00,BKN,FEW,0.03,WeatherDisplay:10.37,2013-02-05 21:44:00,
2013-02-05 21:49:00,41.4,37.2,29.56,WSW,258,10.4,10.4,85,0.00,BKN,FEW,0.03,WeatherDisplay:10.37,2013-02-05 21:49:00,
2013-02-05 21:54:00,41.4,37.2,29.56,WSW,258,18.4,18.4,85,0.00,BKN,FEW,0.03,WeatherDisplay:10.37,2013-02-05 21:54:00,
2013-02-05 21:59:00,41.4,37.2,29.56,WSW,258,11.5,11.5,85,0.00,BKN,FEW,0.03,WeatherDisplay:10.37,2013-02-05 21:59:00,
2013-02-05 22:04:00,41.5,37.7,29.56,WSW,258,11.6,11.6,86,0.00,SCT,FEW,0.03,WeatherDisplay:10.37,2013-02-05 22:04:00,
2013-02-05 22:09:00,41.4,37.5,29.56,West,280,8.5,8.5,86,0.00,SCT,FEW,0.03,WeatherDisplay:10.37,2013-02-05 22:09:00,
2013-02-05 22:14:00,41.4,37.5,29.56,WSW,258,11.5,11.5,86,0.00,SCT,FEW,0.03,WeatherDisplay:10.37,2013-02-05 22:14:00,
2013-02-05 22:19:00,41.4,37.2,29.56,NW,325,8.1,9.1,85,0.00,SCT,FEW,0.03,WeatherDisplay:10.37,2013-02-05 22:19:00,
2013-02-05 22:24:00,41.5,37.4,29.56,WSW,258,13.8,13.8,85,0.00,SCT,FEW,0.03,WeatherDisplay:10.37,2013-02-05 22:24:00,
2013-02-05 22:29:00,41.5,37.4,29.56,West,280,24.2,24.2,85,0.00,SCT,FEW,0.03,WeatherDisplay:10.37,2013-02-05 22:29:00,
2013-02-05 22:34:00,41.7,37.5,29.56,WSW,258,13.8,13.8,85,0.00,SCT,FEW,0.03,WeatherDisplay:10.37,2013-02-05 22:34:00,
2013-02-05 22:39:00,41.9,37.4,29.57,NW,325,9.2,10.3,84,0.00,SCT,FEW,0.03,WeatherDisplay:10.37,2013-02-05 22:39:00,
2013-02-05 22:44:00,41.5,37.1,29.57,West,280,15.0,15.0,84,0.00,SCT,FEW,0.03,WeatherDisplay:10.37,2013-02-05 22:44:00,
2013-02-05 22:49:00,41.5,37.1,29.57,WSW,258,24.2,24.2,84,0.00,SCT,FEW,0.03,WeatherDisplay:10.37,2013-02-05 22:49:00,
2013-02-05 22:54:00,41.5,37.1,29.57,West,280,28.8,28.8,84,0.00,SCT,FEW,0.03,WeatherDisplay:10.37,2013-02-05 22:54:00,
2013-02-05 22:59:00,41.5,36.8,29.57,WSW,258,16.1,16.1,83,0.00,SCT,FEW,0.03,WeatherDisplay:10.37,2013-02-05 22:59:00,
2013-02-05 23:04:00,41.4,36.9,29.57,WNW,302,16.1,16.1,84,0.00,SCT,FEW,0.03,WeatherDisplay:10.37,2013-02-05 23:04:00,
2013-02-05 23:09:00,41.4,36.9,29.57,ESE,122,17.3,17.3,84,0.00,SCT,FEW,0.03,WeatherDisplay:10.37,2013-02-05 23:09:00,
2013-02-05 23:14:00,41.4,36.6,29.57,NW,325,13.8,13.8,83,0.00,SCT,FEW,0.03,WeatherDisplay:10.37,2013-02-05 23:14:00,
2013-02-05 23:19:00,41.4,36.6,29.60,East,100,19.6,19.6,83,0.00,SCT,FEW,0.03,WeatherDisplay:10.37,2013-02-05 23:19:00,
2013-02-05 23:24:00,41.5,36.8,29.60,NW,325,19.6,19.6,83,0.00,SCT,FEW,0.03,WeatherDisplay:10.37,2013-02-05 23:24:00,
2013-02-05 23:29:00,41.5,36.8,29.60,ESE,122,18.4,18.4,83,0.00,SCT,FEW,0.03,WeatherDisplay:10.37,2013-02-05 23:29:00,
2013-02-05 23:34:00,41.2,36.4,29.60,WNW,302,16.1,16.1,83,0.00,SCT,FEW,0.03,WeatherDisplay:10.37,2013-02-05 23:34:00,
2013-02-05 23:39:00,41.2,36.4,29.62,NW,325,11.7,11.7,83,0.00,SCT,FEW,0.03,WeatherDisplay:10.37,2013-02-05 23:39:00,
2013-02-05 23:44:00,41.2,36.7,29.62,West,280,16.1,16.1,84,0.00,SCT,FEW,0.03,WeatherDisplay:10.37,2013-02-05 23:44:00,
2013-02-05 23:49:00,41.2,36.7,29.62,WNW,302,9.2,9.2,84,0.00,SCT,FEW,0.03,WeatherDisplay:10.37,2013-02-05 23:49:00,
2013-02-05 23:54:00,41.2,36.7,29.62,WNW,302,11.5,11.5,84,0.00,SCT,FEW,0.03,WeatherDisplay:10.37,2013-02-05 23:54:00,
2013-02-05 23:59:00,41.2,36.7,29.62,West,280,15.5,15.5,84,0.00,SCT,FEW,0.03,WeatherDisplay:10.37,2013-02-05 23:59:00,